| time (UTC) | temp C | wind direction | speed KPH | gust KPH | rain 1hr cm | rain 24hr cm | rain mn cm | humidity % | barometer mb |
| 20260906065704 | 25 | 146 | 0.0 | 0.0 | 0.00 | 0.00 | 0.00 | 90 | 1010.9 |
| 20260906065159 | 25 | 146 | 0.0 | 0.0 | 0.00 | 0.00 | 0.00 | 89 | 1011.0 |
| 20260906064655 | 25 | 146 | 0.0 | 0.0 | 0.00 | 0.00 | 0.00 | 89 | 1011.0 |
| 20260906064150 | 25 | 146 | 0.0 | 0.0 | 0.00 | 0.00 | 0.00 | 88 | 1010.9 |
| 20260906063645 | 25 | 146 | 0.0 | 0.0 | 0.00 | 0.00 | 0.00 | 88 | 1011.0 |
| 20260906063141 | 25 | 142 | 0.0 | 0.0 | 0.00 | 0.00 | 0.00 | 89 | 1011.0 |
| 20260906062637 | 25 | 146 | 0.0 | 0.0 | 0.00 | 0.00 | 0.00 | 89 | 1010.9 |
| 20260906062135 | 25 | 146 | 0.0 | 0.0 | 0.00 | 0.00 | 0.00 | 89 | 1011.2 |
| 20260906061632 | 25 | 146 | 0.0 | 0.0 | 0.00 | 0.00 | 0.00 | 88 | 1011.0 |
| 20260906061131 | 25 | 142 | 0.0 | 0.0 | 0.00 | 0.00 | 0.00 | 87 | 1011.2 |
| 20260906060628 | 25 | 147 | 0.0 | 0.0 | 0.00 | 0.00 | 0.00 | 87 | 1011.2 |
| 20260906060125 | 25 | 148 | 0.0 | 0.0 | 0.00 | 0.00 | 0.00 | 87 | 1011.3 |
| 20260906055620 | 25 | 148 | 0.0 | 0.0 | 0.00 | 0.00 | 0.00 | 87 | 1011.3 |
| 20260906055115 | 25 | 145 | 0.0 | 0.0 | 0.00 | 0.00 | 0.00 | 87 | 1011.3 |
| 20260906054610 | 26 | 147 | 0.0 | 0.0 | 0.00 | 0.00 | 0.00 | 86 | 1011.5 |
| 20260906054105 | 26 | 146 | 0.0 | 0.0 | 0.00 | 0.00 | 0.00 | 86 | 1011.4 |
| 20260906053602 | 26 | 150 | 0.0 | 0.0 | 0.00 | 0.00 | 0.00 | 86 | 1011.3 |
| 20260906053057 | 26 | 138 | 1.6 | 1.6 | 0.00 | 0.00 | 0.00 | 86 | 1011.3 |
| 20260906052552 | 26 | 146 | 0.0 | 0.0 | 0.00 | 0.00 | 0.00 | 86 | 1011.3 |
| 20260906052050 | 26 | 146 | 0.0 | 0.0 | 0.00 | 0.00 | 0.00 | 86 | 1011.3 |
| 20260906051544 | 26 | 150 | 0.0 | 0.0 | 0.00 | 0.00 | 0.00 | 86 | 1011.1 |
| 20260906051040 | 26 | 144 | 0.0 | 0.0 | 0.00 | 0.00 | 0.00 | 86 | 1011.1 |
| 20260906050535 | 25 | 171 | 0.0 | 0.0 | 0.00 | 0.00 | 0.00 | 87 | 1011.1 |
| 20260906050030 | 25 | 158 | 0.0 | 0.0 | 0.00 | 0.00 | 0.00 | 87 | 1010.9 |
| 20260906045523 | 25 | 147 | 0.0 | 0.0 | 0.00 | 0.00 | 0.00 | 87 | 1010.8 |
| 20260906045018 | 26 | 148 | 0.0 | 0.0 | 0.00 | 0.00 | 0.00 | 86 | 1010.9 |
| 20260906044513 | 26 | 148 | 0.0 | 0.0 | 0.00 | 0.00 | 0.00 | 86 | 1010.8 |
| 20260906044009 | 26 | 144 | 0.0 | 0.0 | 0.00 | 0.00 | 0.00 | 85 | 1010.9 |
| 20260906043504 | 26 | 145 | 0.0 | 0.0 | 0.00 | 0.00 | 0.00 | 85 | 1010.8 |
| 20260906043000 | 26 | 144 | 0.0 | 0.0 | 0.00 | 0.00 | 0.00 | 85 | 1010.8 |
| 20260906042459 | 26 | 148 | 0.0 | 0.0 | 0.00 | 0.00 | 0.00 | 86 | 1010.8 |
| 20260906041959 | 26 | 148 | 0.0 | 0.0 | 0.00 | 0.00 | 0.00 | 86 | 1010.9 |
| 20260906041456 | 26 | 139 | 0.0 | 0.0 | 0.00 | 0.00 | 0.00 | 86 | 1010.8 |
| 20260906040955 | 26 | 137 | 0.0 | 0.0 | 0.00 | 0.00 | 0.00 | 85 | 1011.0 |
| 20260906040450 | 26 | 144 | 0.0 | 0.0 | 0.00 | 0.00 | 0.00 | 85 | 1010.9 |
| 20260906035945 | 26 | 145 | 0.0 | 0.0 | 0.00 | 0.00 | 0.00 | 84 | 1010.8 |
| 20260906035440 | 26 | 149 | 0.0 | 0.0 | 0.00 | 0.00 | 0.00 | 85 | 1010.9 |
| 20260906034936 | 26 | 146 | 0.0 | 0.0 | 0.00 | 0.00 | 0.00 | 84 | 1010.8 |
| 20260906034431 | 26 | 145 | 0.0 | 0.0 | 0.00 | 0.00 | 0.00 | 84 | 1010.9 |
| 20260906033926 | 26 | 146 | 0.0 | 0.0 | 0.00 | 0.00 | 0.00 | 84 | 1011.0 |
| 20260906033421 | 26 | 140 | 0.0 | 0.0 | 0.00 | 0.00 | 0.00 | 83 | 1010.9 |
| 20260906032916 | 26 | 148 | 0.0 | 0.0 | 0.00 | 0.00 | 0.00 | 83 | 1011.1 |
| 20260906032413 | 27 | 140 | 0.0 | 0.0 | 0.00 | 0.00 | 0.00 | 83 | 1011.1 |
| 20260906031907 | 27 | 152 | 0.0 | 0.0 | 0.00 | 0.00 | 0.00 | 82 | 1011.1 |
| 20260906031403 | 27 | 148 | 0.0 | 0.0 | 0.00 | 0.00 | 0.00 | 82 | 1011.2 |
| 20260906030858 | 27 | 143 | 0.0 | 0.0 | 0.00 | 0.00 | 0.00 | 82 | 1011.1 |
| 20260906030352 | 27 | 146 | 0.0 | 0.0 | 0.00 | 0.00 | 0.00 | 81 | 1011.0 |
| 20260906025846 | 27 | 150 | 0.0 | 0.0 | 0.00 | 0.00 | 0.00 | 81 | 1010.9 |
| 20260906025341 | 27 | 151 | 0.0 | 0.0 | 0.00 | 0.00 | 0.00 | 81 | 1011.0 |
| 20260906024840 | 27 | 149 | 0.0 | 0.0 | 0.00 | 0.00 | 0.00 | 80 | 1011.2 |
| 20260906024339 | 27 | 144 | 0.0 | 0.0 | 0.00 | 0.00 | 0.00 | 80 | 1011.2 |
| 20260906023835 | 27 | 157 | 0.0 | 0.0 | 0.00 | 0.00 | 0.00 | 81 | 1011.1 |
| 20260906023330 | 27 | 148 | 0.0 | 0.0 | 0.00 | 0.00 | 0.00 | 81 | 1011.1 |
| 20260906022826 | 27 | 148 | 0.0 | 0.0 | 0.00 | 0.00 | 0.00 | 81 | 1011.0 |
| 20260906022321 | 27 | 140 | 0.0 | 0.0 | 0.00 | 0.00 | 0.00 | 79 | 1010.9 |
| 20260906021816 | 28 | 145 | 0.0 | 0.0 | 0.00 | 0.00 | 0.00 | 77 | 1011.1 |
| 20260906021315 | 27 | 157 | 0.0 | 0.0 | 0.00 | 0.00 | 0.00 | 78 | 1010.9 |
| 20260906020810 | 27 | 157 | 0.0 | 0.0 | 0.00 | 0.00 | 0.00 | 78 | 1010.9 |
| 20260906020309 | 27 | 161 | 0.0 | 0.0 | 0.00 | 0.00 | 0.00 | 78 | 1010.6 |
| 20260906015804 | 28 | 146 | 0.0 | 0.0 | 0.00 | 0.00 | 0.00 | 76 | 1010.4 |
| 20260906015305 | 28 | 146 | 0.0 | 0.0 | 0.00 | 0.00 | 0.00 | 76 | 1010.4 |
| 20260906014803 | 28 | 137 | 0.0 | 0.0 | 0.00 | 0.00 | 0.00 | 76 | 1010.4 |
| 20260906014258 | 28 | 143 | 0.0 | 0.0 | 0.00 | 0.00 | 0.00 | 75 | 1010.3 |
| 20260906013755 | 28 | 148 | 0.0 | 0.0 | 0.00 | 0.00 | 0.00 | 75 | 1010.2 |
| 20260906013255 | 28 | 148 | 0.0 | 0.0 | 0.00 | 0.00 | 0.00 | 75 | 1010.2 |
| 20260906012750 | 29 | 148 | 0.0 | 0.0 | 0.00 | 0.00 | 0.00 | 74 | 1010.0 |
| 20260906012245 | 29 | 148 | 0.0 | 0.0 | 0.00 | 0.00 | 0.00 | 72 | 1010.0 |
| 20260906011740 | 29 | 148 | 0.0 | 0.0 | 0.00 | 0.00 | 0.00 | 72 | 1009.9 |
| 20260906011240 | 30 | 148 | 0.0 | 0.0 | 0.00 | 0.00 | 0.00 | 71 | 1009.9 |
| 20260906010735 | 30 | 148 | 0.0 | 0.0 | 0.00 | 0.00 | 0.00 | 70 | 1009.8 |
| 20260906010232 | 30 | 146 | 0.0 | 0.0 | 0.00 | 0.00 | 0.00 | 70 | 1010.0 |
| 20260906005727 | 30 | 151 | 0.0 | 0.0 | 0.00 | 0.00 | 0.00 | 68 | 1009.8 |
| 20260906005226 | 30 | 151 | 0.0 | 0.0 | 0.00 | 0.00 | 0.00 | 68 | 1009.7 |
| 20260906004725 | 31 | 151 | 0.0 | 0.0 | 0.00 | 0.00 | 0.00 | 68 | 1009.8 |
| 20260906004220 | 31 | 155 | 0.0 | 0.0 | 0.00 | 0.00 | 0.00 | 66 | 1010.0 |
| 20260906003715 | 31 | 142 | 0.0 | 0.0 | 0.00 | 0.00 | 0.00 | 67 | 1009.9 |
| 20260906003211 | 31 | 148 | 0.0 | 0.0 | 0.00 | 0.00 | 0.00 | 65 | 1009.8 |
| 20260906002706 | 31 | 148 | 0.0 | 0.0 | 0.00 | 0.00 | 0.00 | 63 | 1009.8 |
| 20260906002201 | 32 | 148 | 0.0 | 0.0 | 0.00 | 0.00 | 0.00 | 62 | 1009.8 |
| 20260906001655 | 32 | 148 | 0.0 | 0.0 | 0.00 | 0.00 | 0.00 | 60 | 1009.7 |
| 20260906001155 | 32 | 147 | 0.0 | 0.0 | 0.00 | 0.00 | 0.00 | 58 | 1009.9 |
| 20260906000651 | 32 | 146 | 0.0 | 0.0 | 0.00 | 0.00 | 0.00 | 57 | 1009.8 |
| 20260906000146 | 33 | 148 | 0.0 | 0.0 | 0.00 | 0.00 | 0.00 | 55 | 1009.4 |
| 20260905235645 | 33 | 148 | 0.0 | 0.0 | 0.00 | 0.00 | 0.00 | 55 | 1009.7 |
| 20260905235140 | 33 | 148 | 0.0 | 0.0 | 0.00 | 0.00 | 0.00 | 55 | 1009.7 |
| 20260905234635 | 33 | 148 | 0.0 | 0.0 | 0.00 | 0.00 | 0.00 | 55 | 1010.0 |
| 20260905234131 | 33 | 145 | 0.0 | 0.0 | 0.00 | 0.00 | 0.00 | 54 | 1009.9 |
| 20260905233626 | 34 | 143 | 0.0 | 0.0 | 0.00 | 0.00 | 0.00 | 53 | 1009.8 |
| 20260905233125 | 34 | 147 | 0.0 | 0.0 | 0.00 | 0.00 | 0.00 | 52 | 1009.7 |
| 20260905232621 | 34 | 128 | 0.0 | 0.0 | 0.00 | 0.00 | 0.00 | 50 | 1009.8 |
| 20260905232117 | 35 | 140 | 0.0 | 0.0 | 0.00 | 0.00 | 0.00 | 53 | 1009.6 |
| 20260905231617 | 35 | 144 | 0.0 | 0.0 | 0.00 | 0.00 | 0.00 | 49 | 1009.8 |
| 20260905231113 | 35 | 134 | 0.0 | 0.0 | 0.00 | 0.00 | 0.00 | 50 | 1009.6 |
| 20260905230609 | 35 | 155 | 0.0 | 0.0 | 0.00 | 0.00 | 0.00 | 49 | 1009.7 |
| 20260905230106 | 35 | 153 | 0.0 | 0.0 | 0.00 | 0.00 | 0.00 | 48 | 1009.6 |
| 20260905225600 | 35 | 143 | 0.0 | 0.0 | 0.00 | 0.00 | 0.00 | 47 | 1009.8 |
| 20260905225055 | 35 | 143 | 0.0 | 0.0 | 0.00 | 0.00 | 0.00 | 47 | 1009.8 |
| 20260905224555 | 36 | 145 | 0.0 | 0.0 | 0.00 | 0.00 | 0.00 | 46 | 1009.7 |
| 20260905224055 | 36 | 107 | 0.0 | 0.0 | 0.00 | 0.00 | 0.00 | 47 | 1009.6 |
| 20260905223552 | 36 | 141 | 0.0 | 0.0 | 0.00 | 0.00 | 0.00 | 46 | 1009.8 |
| 20260905223048 | 36 | 126 | 0.0 | 0.0 | 0.00 | 0.00 | 0.00 | 46 | 1009.8 |
| 20260905222548 | 36 | 143 | 0.0 | 0.0 | 0.00 | 0.00 | 0.00 | 46 | 1009.7 |
| 20260905222043 | 36 | 148 | 0.0 | 0.0 | 0.00 | 0.00 | 0.00 | 45 | 1009.9 |
| 20260905221540 | 36 | 127 | 0.0 | 0.0 | 0.00 | 0.00 | 0.00 | 46 | 1009.9 |
| 20260905221036 | 36 | 79 | 0.0 | 1.6 | 0.00 | 0.00 | 0.00 | 45 | 1009.9 |
| 20260905220531 | 36 | 200 | 0.0 | 0.0 | 0.00 | 0.00 | 0.00 | 45 | 1009.9 |
| 20260905220027 | 36 | 126 | 0.0 | 0.0 | 0.00 | 0.00 | 0.00 | 45 | 1009.9 |
| 20260905215526 | 36 | 127 | 3.2 | 4.8 | 0.00 | 0.00 | 0.00 | 45 | 1010.0 |
| 20260905215023 | 36 | 130 | 0.0 | 0.0 | 0.00 | 0.00 | 0.00 | 46 | 1009.8 |
| 20260905214518 | 36 | 146 | 0.0 | 0.0 | 0.00 | 0.00 | 0.00 | 45 | 1010.0 |
| 20260905214013 | 36 | 138 | 1.6 | 3.2 | 0.00 | 0.00 | 0.00 | 45 | 1010.1 |
| 20260905213509 | 36 | 52 | 3.2 | 3.2 | 0.00 | 0.00 | 0.00 | 43 | 1009.9 |
| 20260905213004 | 37 | 95 | 3.2 | 4.8 | 0.00 | 0.00 | 0.00 | 44 | 1010.0 |
| 20260905212459 | 37 | 153 | 1.6 | 1.6 | 0.00 | 0.00 | 0.00 | 43 | 1010.0 |
| 20260905211958 | 37 | 105 | 0.0 | 0.0 | 0.00 | 0.00 | 0.00 | 43 | 1010.1 |
| 20260905211454 | 36 | 174 | 0.0 | 0.0 | 0.00 | 0.00 | 0.00 | 42 | 1010.1 |
| 20260905210949 | 36 | 167 | 1.6 | 1.6 | 0.00 | 0.00 | 0.00 | 42 | 1010.1 |
| 20260905210445 | 35 | 156 | 0.0 | 0.0 | 0.00 | 0.00 | 0.00 | 48 | 1010.3 |
| 20260905205944 | 35 | 107 | 0.0 | 0.0 | 0.00 | 0.00 | 0.00 | 47 | 1010.1 |
| 20260905205439 | 36 | 112 | 1.6 | 3.2 | 0.00 | 0.00 | 0.00 | 44 | 1010.2 |
| 20260905204937 | 36 | 128 | 0.0 | 0.0 | 0.00 | 0.00 | 0.00 | 45 | 1010.3 |
| 20260905204428 | 36 | 137 | 0.0 | 0.0 | 0.00 | 0.00 | 0.00 | 46 | 1010.3 |
| 20260905203927 | 36 | 124 | 0.0 | 0.0 | 0.00 | 0.00 | 0.00 | 46 | 1010.2 |
| 20260905203423 | 36 | 123 | 1.6 | 3.2 | 0.00 | 0.00 | 0.00 | 44 | 1010.4 |
| 20260905202918 | 36 | 148 | 1.6 | 1.6 | 0.00 | 0.00 | 0.00 | 41 | 1010.6 |
| 20260905202413 | 37 | 148 | 0.0 | 0.0 | 0.00 | 0.00 | 0.00 | 42 | 1010.4 |
| 20260905201909 | 37 | 147 | 3.2 | 3.2 | 0.00 | 0.00 | 0.00 | 42 | 1010.6 |
| 20260905201403 | 37 | 112 | 0.0 | 1.6 | 0.00 | 0.00 | 0.00 | 41 | 1010.5 |
| 20260905200858 | 37 | 199 | 3.2 | 3.2 | 0.00 | 0.00 | 0.00 | 41 | 1010.7 |
| 20260905200354 | 37 | 104 | 3.2 | 3.2 | 0.00 | 0.00 | 0.00 | 42 | 1010.9 |
| 20260905195851 | 37 | 133 | 0.0 | 0.0 | 0.00 | 0.00 | 0.00 | 42 | 1010.8 |
| 20260905195347 | 36 | 160 | 0.0 | 0.0 | 0.00 | 0.00 | 0.00 | 43 | 1011.1 |
| 20260905194842 | 36 | 150 | 0.0 | 0.0 | 0.00 | 0.00 | 0.00 | 46 | 1011.3 |
| 20260905194337 | 36 | 145 | 1.6 | 1.6 | 0.00 | 0.00 | 0.00 | 46 | 1011.3 |
| 20260905193836 | 36 | 146 | 0.0 | 0.0 | 0.00 | 0.00 | 0.00 | 45 | 1011.3 |
| 20260905193331 | 37 | 124 | 3.2 | 4.8 | 0.00 | 0.00 | 0.00 | 45 | 1011.2 |
| 20260905192827 | 36 | 141 | 0.0 | 0.0 | 0.00 | 0.00 | 0.00 | 44 | 1011.4 |
| 20260905192323 | 36 | 62 | 4.8 | 4.8 | 0.00 | 0.00 | 0.00 | 42 | 1011.5 |
| 20260905191822 | 37 | 156 | 0.0 | 0.0 | 0.00 | 0.00 | 0.00 | 43 | 1011.6 |
| 20260905191320 | 37 | 193 | 1.6 | 3.2 | 0.00 | 0.00 | 0.00 | 43 | 1011.6 |
| 20260905190819 | 37 | 156 | 0.0 | 0.0 | 0.00 | 0.00 | 0.00 | 40 | 1011.6 |
| 20260905190318 | 37 | 153 | 1.6 | 1.6 | 0.00 | 0.00 | 0.00 | 42 | 1011.8 |
| 20260905185818 | 38 | 106 | 0.0 | 0.0 | 0.00 | 0.00 | 0.00 | 42 | 1011.7 |
| 20260905185313 | 38 | 135 | 0.0 | 0.0 | 0.00 | 0.00 | 0.00 | 41 | 1011.6 |
| 20260905184812 | 38 | 130 | 0.0 | 0.0 | 0.00 | 0.00 | 0.00 | 41 | 1011.8 |
| 20260905184311 | 38 | 175 | 0.0 | 0.0 | 0.00 | 0.00 | 0.00 | 43 | 1012.0 |
| 20260905183810 | 38 | 123 | 0.0 | 0.0 | 0.00 | 0.00 | 0.00 | 44 | 1012.0 |
| 20260905183306 | 37 | 150 | 1.6 | 1.6 | 0.00 | 0.00 | 0.00 | 46 | 1012.0 |
| 20260905182800 | 37 | 153 | 1.6 | 1.6 | 0.00 | 0.00 | 0.00 | 42 | 1012.3 |
| 20260905182300 | 37 | 72 | 3.2 | 3.2 | 0.00 | 0.00 | 0.00 | 44 | 1012.2 |
| 20260905181755 | 38 | 172 | 1.6 | 1.6 | 0.00 | 0.00 | 0.00 | 42 | 1012.2 |
| 20260905181254 | 37 | 161 | 0.0 | 1.6 | 0.00 | 0.00 | 0.00 | 44 | 1012.2 |
| 20260905180749 | 37 | 157 | 0.0 | 0.0 | 0.00 | 0.00 | 0.00 | 44 | 1012.4 |
| 20260905180244 | 36 | 139 | 1.6 | 3.2 | 0.00 | 0.00 | 0.00 | 44 | 1012.4 |
| 20260905175739 | 37 | 56 | 0.0 | 1.6 | 0.00 | 0.00 | 0.00 | 45 | 1012.5 |
| 20260905175233 | 37 | 152 | 1.6 | 3.2 | 0.00 | 0.00 | 0.00 | 45 | 1012.3 |
| 20260905174728 | 36 | 154 | 0.0 | 0.0 | 0.00 | 0.00 | 0.00 | 46 | 1012.6 |
| 20260905174224 | 36 | 69 | 3.2 | 3.2 | 0.00 | 0.00 | 0.00 | 47 | 1012.5 |
| 20260905173720 | 36 | 86 | 1.6 | 3.2 | 0.00 | 0.00 | 0.00 | 46 | 1012.4 |
| 20260905173215 | 37 | 145 | 1.6 | 1.6 | 0.00 | 0.00 | 0.00 | 44 | 1012.6 |
| 20260905172714 | 37 | 106 | 3.2 | 3.2 | 0.00 | 0.00 | 0.00 | 45 | 1012.7 |
| 20260905172209 | 37 | 280 | 3.2 | 3.2 | 0.00 | 0.00 | 0.00 | 45 | 1012.5 |
| 20260905171705 | 37 | 113 | 1.6 | 1.6 | 0.00 | 0.00 | 0.00 | 47 | 1012.8 |
| 20260905171200 | 37 | 241 | 1.6 | 3.2 | 0.00 | 0.00 | 0.00 | 47 | 1012.7 |
| 20260905170658 | 37 | 349 | 3.2 | 3.2 | 0.00 | 0.00 | 0.00 | 46 | 1012.8 |
| 20260905170152 | 36 | 124 | 1.6 | 1.6 | 0.00 | 0.00 | 0.00 | 47 | 1013.0 |
| 20260905165652 | 36 | 113 | 0.0 | 0.0 | 0.00 | 0.00 | 0.00 | 48 | 1012.8 |
| 20260905165147 | 36 | 62 | 3.2 | 3.2 | 0.00 | 0.00 | 0.00 | 47 | 1013.2 |
| 20260905164642 | 36 | 96 | 0.0 | 0.0 | 0.00 | 0.00 | 0.00 | 47 | 1013.2 |
| 20260905164141 | 36 | 108 | 3.2 | 3.2 | 0.00 | 0.00 | 0.00 | 48 | 1012.9 |
| 20260905163637 | 36 | 122 | 4.8 | 4.8 | 0.00 | 0.00 | 0.00 | 49 | 1013.2 |
| 20260905163134 | 36 | 344 | 3.2 | 4.8 | 0.00 | 0.00 | 0.00 | 49 | 1013.0 |
| 20260905162630 | 36 | 146 | 0.0 | 0.0 | 0.00 | 0.00 | 0.00 | 49 | 1013.0 |
| 20260905162129 | 35 | 95 | 1.6 | 1.6 | 0.00 | 0.00 | 0.00 | 53 | 1013.3 |
| 20260905161628 | 35 | 166 | 4.8 | 4.8 | 0.00 | 0.00 | 0.00 | 53 | 1013.4 |
| 20260905161126 | 35 | 144 | 1.6 | 1.6 | 0.00 | 0.00 | 0.00 | 55 | 1013.6 |
| 20260905160621 | 35 | 156 | 1.6 | 1.6 | 0.00 | 0.00 | 0.00 | 54 | 1013.6 |
| 20260905160115 | 35 | 131 | 0.0 | 0.0 | 0.00 | 0.00 | 0.00 | 54 | 1013.4 |
| 20260905155609 | 35 | 136 | 0.0 | 0.0 | 0.00 | 0.00 | 0.00 | 52 | 1013.6 |
| 20260905155108 | 34 | 137 | 0.0 | 0.0 | 0.00 | 0.00 | 0.00 | 55 | 1013.6 |
| 20260905154608 | 33 | 167 | 0.0 | 0.0 | 0.00 | 0.00 | 0.00 | 57 | 1013.6 |
| 20260905154104 | 33 | 139 | 0.0 | 0.0 | 0.00 | 0.00 | 0.00 | 62 | 1013.5 |
| 20260905153600 | 33 | 160 | 0.0 | 1.6 | 0.00 | 0.00 | 0.00 | 61 | 1013.8 |
| 20260905153059 | 33 | 145 | 0.0 | 0.0 | 0.00 | 0.00 | 0.00 | 60 | 1013.8 |
| 20260905152554 | 32 | 135 | 1.6 | 1.6 | 0.00 | 0.00 | 0.00 | 61 | 1013.8 |
| 20260905152049 | 32 | 131 | 0.0 | 1.6 | 0.00 | 0.00 | 0.00 | 64 | 1013.9 |
| 20260905151545 | 32 | 170 | 0.0 | 0.0 | 0.00 | 0.00 | 0.00 | 65 | 1013.9 |
| 20260905151040 | 32 | 128 | 0.0 | 0.0 | 0.00 | 0.00 | 0.00 | 66 | 1013.8 |
| 20260905150535 | 31 | 144 | 0.0 | 0.0 | 0.00 | 0.00 | 0.00 | 68 | 1013.8 |
| 20260905150034 | 31 | 150 | 0.0 | 0.0 | 0.00 | 0.00 | 0.00 | 71 | 1013.7 |
| 20260905145532 | 31 | 152 | 0.0 | 0.0 | 0.00 | 0.00 | 0.00 | 71 | 1013.6 |
| 20260905145032 | 31 | 154 | 3.2 | 3.2 | 0.00 | 0.00 | 0.00 | 71 | 1013.7 |
| 20260905144527 | 30 | 161 | 1.6 | 1.6 | 0.00 | 0.00 | 0.00 | 73 | 1013.6 |
| 20260905144026 | 30 | 158 | 1.6 | 1.6 | 0.00 | 0.00 | 0.00 | 73 | 1013.6 |
| 20260905143525 | 30 | 144 | 0.0 | 0.0 | 0.00 | 0.00 | 0.00 | 75 | 1013.6 |
| 20260905143021 | 30 | 151 | 0.0 | 0.0 | 0.00 | 0.00 | 0.00 | 78 | 1013.7 |
| 20260905142519 | 29 | 145 | 0.0 | 1.6 | 0.00 | 0.00 | 0.00 | 80 | 1013.7 |
| 20260905142015 | 29 | 153 | 1.6 | 1.6 | 0.00 | 0.00 | 0.00 | 79 | 1013.8 |
| 20260905141509 | 29 | 155 | 0.0 | 0.0 | 0.00 | 0.00 | 0.00 | 80 | 1013.6 |
| 20260905141006 | 28 | 136 | 0.0 | 0.0 | 0.00 | 0.00 | 0.00 | 82 | 1013.5 |
| 20260905140500 | 28 | 146 | 0.0 | 0.0 | 0.00 | 0.00 | 0.00 | 82 | 1013.6 |
| 20260905135958 | 28 | 135 | 0.0 | 0.0 | 0.00 | 0.00 | 0.00 | 84 | 1013.6 |
| 20260905135455 | 28 | 149 | 0.0 | 0.0 | 0.00 | 0.00 | 0.00 | 83 | 1013.8 |
| 20260905134950 | 27 | 149 | 0.0 | 0.0 | 0.00 | 0.00 | 0.00 | 82 | 1013.4 |
| 20260905134449 | 27 | 153 | 0.0 | 0.0 | 0.00 | 0.00 | 0.00 | 84 | 1013.6 |
| 20260905133948 | 27 | 146 | 0.0 | 0.0 | 0.00 | 0.00 | 0.00 | 87 | 1013.5 |
| 20260905133443 | 26 | 147 | 0.0 | 0.0 | 0.00 | 0.00 | 0.00 | 88 | 1013.7 |
| 20260905132937 | 26 | 149 | 0.0 | 0.0 | 0.00 | 0.00 | 0.00 | 88 | 1013.6 |
| 20260905132432 | 26 | 149 | 0.0 | 0.0 | 0.00 | 0.00 | 0.00 | 88 | 1013.6 |
| 20260905131928 | 26 | 149 | 0.0 | 0.0 | 0.00 | 0.00 | 0.00 | 89 | 1013.6 |
| 20260905131424 | 26 | 149 | 0.0 | 0.0 | 0.00 | 0.00 | 0.00 | 89 | 1013.6 |
| 20260905130924 | 25 | 149 | 0.0 | 0.0 | 0.00 | 0.00 | 0.00 | 88 | 1013.6 |
| 20260905130423 | 25 | 158 | 0.0 | 0.0 | 0.00 | 0.00 | 0.00 | 89 | 1013.4 |
| 20260905125923 | 25 | 152 | 0.0 | 0.0 | 0.00 | 0.00 | 0.00 | 90 | 1013.3 |
| 20260905125418 | 25 | 152 | 0.0 | 0.0 | 0.00 | 0.00 | 0.00 | 91 | 1013.5 |
| 20260905124914 | 24 | 156 | 0.0 | 0.0 | 0.00 | 0.00 | 0.00 | 93 | 1013.5 |
| 20260905124410 | 24 | 150 | 0.0 | 0.0 | 0.00 | 0.00 | 0.00 | 93 | 1013.5 |
| 20260905123910 | 23 | 157 | 0.0 | 0.0 | 0.00 | 0.00 | 0.00 | 94 | 1013.7 |
| 20260905123407 | 23 | 156 | 0.0 | 0.0 | 0.00 | 0.00 | 0.00 | 94 | 1013.5 |
| 20260905122902 | 23 | 144 | 0.0 | 0.0 | 0.00 | 0.00 | 0.00 | 95 | 1013.6 |
| 20260905122400 | 23 | 140 | 0.0 | 0.0 | 0.00 | 0.00 | 0.00 | 95 | 1013.7 |
| 20260905121857 | 23 | 137 | 0.0 | 0.0 | 0.00 | 0.00 | 0.00 | 95 | 1013.4 |
| 20260905121353 | 23 | 145 | 0.0 | 0.0 | 0.00 | 0.00 | 0.00 | 95 | 1013.4 |
| 20260905120851 | 23 | 148 | 0.0 | 0.0 | 0.00 | 0.00 | 0.00 | 95 | 1013.2 |
| 20260905120346 | 23 | 148 | 0.0 | 0.0 | 0.00 | 0.00 | 0.00 | 95 | 1013.3 |
| 20260905115841 | 23 | 148 | 0.0 | 0.0 | 0.00 | 0.00 | 0.00 | 95 | 1013.3 |
| 20260905115340 | 23 | 152 | 0.0 | 0.0 | 0.00 | 0.00 | 0.00 | 95 | 1013.2 |
| 20260905114835 | 23 | 152 | 0.0 | 0.0 | 0.00 | 0.00 | 0.00 | 95 | 1012.9 |
| 20260905114334 | 23 | 152 | 0.0 | 0.0 | 0.00 | 0.00 | 0.00 | 95 | 1013.2 |
| 20260905113833 | 23 | 148 | 0.0 | 0.0 | 0.00 | 0.00 | 0.00 | 95 | 1013.2 |
| 20260905113329 | 23 | 141 | 0.0 | 0.0 | 0.00 | 0.00 | 0.00 | 95 | 1013.0 |
| 20260905112824 | 23 | 139 | 0.0 | 0.0 | 0.00 | 0.00 | 0.00 | 95 | 1013.0 |
| 20260905112319 | 23 | 152 | 0.0 | 0.0 | 0.00 | 0.00 | 0.00 | 95 | 1012.8 |
| 20260905111815 | 23 | 141 | 0.0 | 0.0 | 0.00 | 0.00 | 0.00 | 94 | 1012.9 |
| 20260905111315 | 23 | 136 | 0.0 | 0.0 | 0.00 | 0.00 | 0.00 | 94 | 1012.8 |
| 20260905110814 | 23 | 141 | 0.0 | 0.0 | 0.00 | 0.00 | 0.00 | 94 | 1012.9 |
| 20260905110308 | 23 | 140 | 0.0 | 0.0 | 0.00 | 0.00 | 0.00 | 95 | 1012.9 |
| 20260905105804 | 23 | 150 | 0.0 | 0.0 | 0.00 | 0.00 | 0.00 | 95 | 1013.0 |
| 20260905105306 | 23 | 148 | 0.0 | 0.0 | 0.00 | 0.00 | 0.00 | 94 | 1012.6 |
| 20260905104757 | 23 | 143 | 0.0 | 0.0 | 0.00 | 0.00 | 0.00 | 94 | 1012.6 |
| 20260905104254 | 23 | 144 | 0.0 | 0.0 | 0.00 | 0.00 | 0.00 | 94 | 1012.8 |
| 20260905103753 | 23 | 139 | 0.0 | 0.0 | 0.00 | 0.00 | 0.00 | 94 | 1012.6 |
| 20260905103249 | 23 | 147 | 0.0 | 0.0 | 0.00 | 0.00 | 0.00 | 94 | 1012.7 |
| 20260905102744 | 23 | 147 | 0.0 | 0.0 | 0.00 | 0.00 | 0.00 | 94 | 1012.8 |
| 20260905102241 | 23 | 147 | 0.0 | 0.0 | 0.00 | 0.00 | 0.00 | 94 | 1012.6 |
| 20260905101740 | 23 | 144 | 0.0 | 0.0 | 0.00 | 0.00 | 0.00 | 94 | 1012.7 |
| 20260905101238 | 23 | 148 | 0.0 | 0.0 | 0.00 | 0.00 | 0.00 | 94 | 1012.9 |
| 20260905100734 | 23 | 148 | 0.0 | 0.0 | 0.00 | 0.00 | 0.00 | 94 | 1012.7 |
| 20260905100229 | 23 | 134 | 0.0 | 0.0 | 0.00 | 0.00 | 0.00 | 94 | 1012.5 |
| 20260905095724 | 23 | 147 | 0.0 | 0.0 | 0.00 | 0.00 | 0.00 | 94 | 1012.7 |
| 20260905095223 | 23 | 146 | 0.0 | 0.0 | 0.00 | 0.00 | 0.00 | 94 | 1012.7 |
| 20260905094719 | 23 | 148 | 0.0 | 0.0 | 0.00 | 0.00 | 0.00 | 94 | 1012.5 |
| 20260905094219 | 23 | 144 | 0.0 | 0.0 | 0.00 | 0.00 | 0.00 | 94 | 1012.6 |
| 20260905093713 | 23 | 150 | 0.0 | 0.0 | 0.00 | 0.00 | 0.00 | 94 | 1012.8 |
| 20260905093209 | 23 | 153 | 0.0 | 0.0 | 0.00 | 0.00 | 0.00 | 93 | 1012.6 |
| 20260905092704 | 23 | 141 | 0.0 | 0.0 | 0.00 | 0.00 | 0.00 | 93 | 1012.6 |
| 20260905092200 | 23 | 144 | 0.0 | 0.0 | 0.00 | 0.00 | 0.00 | 92 | 1012.6 |
| 20260905091659 | 23 | 146 | 0.0 | 0.0 | 0.00 | 0.00 | 0.00 | 92 | 1012.7 |
| 20260905091153 | 23 | 146 | 0.0 | 0.0 | 0.00 | 0.00 | 0.00 | 92 | 1012.8 |
| 20260905090648 | 23 | 146 | 0.0 | 0.0 | 0.00 | 0.00 | 0.00 | 92 | 1012.5 |
| 20260905090144 | 23 | 144 | 0.0 | 0.0 | 0.00 | 0.00 | 0.00 | 92 | 1012.5 |
| 20260905085642 | 23 | 147 | 0.0 | 0.0 | 0.00 | 0.00 | 0.00 | 92 | 1012.5 |
| 20260905085137 | 23 | 144 | 0.0 | 0.0 | 0.00 | 0.00 | 0.00 | 92 | 1012.5 |
| 20260905084637 | 24 | 143 | 0.0 | 0.0 | 0.00 | 0.00 | 0.00 | 92 | 1012.5 |
| 20260905084132 | 24 | 144 | 0.0 | 0.0 | 0.00 | 0.00 | 0.00 | 91 | 1012.4 |
| 20260905083632 | 24 | 144 | 0.0 | 0.0 | 0.00 | 0.00 | 0.00 | 91 | 1012.4 |
| 20260905083128 | 24 | 151 | 0.0 | 0.0 | 0.00 | 0.00 | 0.00 | 92 | 1012.4 |
| 20260905082624 | 24 | 155 | 0.0 | 0.0 | 0.00 | 0.00 | 0.00 | 92 | 1012.3 |
| 20260905082120 | 24 | 148 | 0.0 | 0.0 | 0.00 | 0.00 | 0.00 | 92 | 1012.4 |
| 20260905081619 | 24 | 144 | 0.0 | 0.0 | 0.00 | 0.00 | 0.00 | 91 | 1012.5 |
| 20260905081114 | 24 | 143 | 0.0 | 0.0 | 0.00 | 0.00 | 0.00 | 91 | 1012.8 |
| 20260905080608 | 24 | 144 | 0.0 | 0.0 | 0.00 | 0.00 | 0.00 | 91 | 1012.5 |
| 20260905075602 | 24 | 145 | 0.0 | 0.0 | 0.00 | 0.00 | 0.00 | 92 | 1012.5 |
| 20260905075102 | 24 | 152 | 0.0 | 0.0 | 0.00 | 0.00 | 0.00 | 92 | 1012.6 |
| 20260905074601 | 24 | 146 | 0.0 | 0.0 | 0.00 | 0.00 | 0.00 | 92 | 1012.6 |
| 20260905074057 | 24 | 146 | 0.0 | 0.0 | 0.00 | 0.00 | 0.00 | 91 | 1012.8 |
| 20260905073552 | 24 | 146 | 0.0 | 0.0 | 0.00 | 0.00 | 0.00 | 91 | 1012.9 |
| 20260905073048 | 24 | 146 | 0.0 | 0.0 | 0.00 | 0.00 | 0.00 | 91 | 1012.6 |
| 20260905072547 | 24 | 148 | 0.0 | 0.0 | 0.00 | 0.00 | 0.00 | 91 | 1012.6 |
| 20260905072042 | 24 | 148 | 0.0 | 0.0 | 0.00 | 0.00 | 0.00 | 91 | 1012.8 |
| 20260905071539 | 24 | 148 | 0.0 | 0.0 | 0.00 | 0.00 | 0.00 | 91 | 1012.8 |
| 20260905071034 | 24 | 148 | 0.0 | 0.0 | 0.00 | 0.00 | 0.00 | 91 | 1012.7 |
| 20260905070530 | 24 | 146 | 0.0 | 0.0 | 0.00 | 0.00 | 0.00 | 91 | 1012.8 |
| 20260905070026 | 24 | 144 | 0.0 | 0.0 | 0.00 | 0.00 | 0.00 | 91 | 1012.9 |